Location: Newark
(35.2672°N, 80.7344°W)
Time: 03:27:50
(UTC+00:00)

Tiros 1 - Pass Details

Date: 21 January 2020
Orbit: 631 x 664 km, 48.4° (Epoch: 17 February)

Event Time Altitude Azimuth Distance (km) Brightness Sun altitude
Rises 20:50:04 0° 277° (W) 2,950 11.2 17.9°
Reaches altitude 10° 20:52:52 10° 292° (WNW) 2,048 10.2 17.5°
Maximum altitude 20:56:32 22° 343° (NNW) 1,427 8.8 16.9°
Drops below altitude 10° 21:00:14 10° 34° (NE) 2,067 9.2 16.4°
Sets 21:03:04 0° 50° (NE) 2,985 9.9 15.9°
